Location: Trebic
(49.2170°N, 15.8830°E)
Time: 14:35:37
(UTC+02:00)

Transit 4A - Pass Details

Date: 28 August 2019
Orbit: 865 x 980 km, 66.8° (Epoch: 15 September)

Event Time Altitude Azimuth Distance (km) Brightness Sun altitude
Rises 00:19:08 0° 321° (NW) 3,662 11.9 -30.3°
Reaches altitude 10° 00:22:14 10° 335° (NNW) 2,698 11.2 -30.4°
Maximum altitude 00:27:21 25° 29° (NNE) 1,796 9.8 -30.5°
Enters shadow 00:32:20 10° 84° (E) 2,624 10.2 -30.6°
Drops below altitude 10° 00:32:21 10° 84° (E) 2,627 - -30.6°
Sets 00:35:18 0° 97° (E) 3,546 - -30.7°
